• In Uzbekistan
  • List of Countries
  • For 7 days
  • Water Temperature
  • Satellite Maps
  • Weather Map
  • Weather Widgets
  • user-avatar
    Login

    Hourly Weather Bad Schandau

    Today, 23 January, Wednesday

    Time Temperature Precipitation Wind Pressure Humidity
    00:00 -9°C° 0 mm 1 mps 697 mmHg 94%
    01:00 -9°C° 0 mm 1 mps 697 mmHg 94%
    02:00 -9°C° 0 mm 1 mps 696 mmHg 93%
    03:00 -9°C° 0 mm 1 mps 696 mmHg 93%
    04:00 -9°C° 0 mm 1 mps 695 mmHg 92%
    05:00 -9°C° 0 mm 1 mps 695 mmHg 92%
    06:00 -9°C° 0 mm 1 mps 694 mmHg 91%
    07:00 -9°C° 0 mm 1 mps 694 mmHg 90%
    08:00 -8°C° 0 mm 1 mps 694 mmHg 88%
    09:00 -7°C° 0 mm 0 mps 694 mmHg 85%
    10:00 -5°C° 0 mm 0 mps 694 mmHg 83%
    11:00 -4°C° 0 mm 0 mps 694 mmHg 79%
    12:00 -3°C° 0 mm 0 mps 694 mmHg 76%
    13:00 -1°C° 0 mm 1 mps 694 mmHg 73%
    14:00 -1°C° 0 mm 1 mps 693 mmHg 77%
    15:00 -1°C° 0 mm 1 mps 693 mmHg 81%
    16:00 -2°C° 0 mm 1 mps 693 mmHg 85%
    17:00 -3°C° 0 mm 1 mps 694 mmHg 87%
    18:00 -4°C° 0 mm 1 mps 694 mmHg 88%
    19:00 -7°C° 0 mm 1 mps 694 mmHg 90%
    20:00 -7°C° 0 mm 1 mps 694 mmHg 90%
    21:00 -8°C° 0 mm 1 mps 695 mmHg 90%
    22:00 -8°C° 0 mm 1 mps 695 mmHg 90%
    23:00 -8°C° 0 mm 1 mps 696 mmHg 90%

    Tomorrow, 24 January, Thursday

    Time Temperature Precipitation Wind Pressure Humidity
    00:00 -9°C° 0 mm 0 mps 696 mmHg 91%
    01:00 -9°C° 0 mm 0 mps 697 mmHg 91%
    02:00 -9°C° 0 mm 0 mps 697 mmHg 91%
    03:00 -9°C° 0 mm 0 mps 697 mmHg 92%
    04:00 -9°C° 0 mm 0 mps 698 mmHg 92%
    05:00 -9°C° 0 mm 1 mps 698 mmHg 92%
    06:00 -9°C° 0 mm 1 mps 699 mmHg 93%
    07:00 -9°C° 0 mm 1 mps 699 mmHg 93%
    08:00 -8°C° 0 mm 1 mps 699 mmHg 91%
    09:00 -7°C° 0 mm 1 mps 700 mmHg 89%
    10:00 -6°C° 0 mm 1 mps 700 mmHg 87%
    11:00 -4°C° 0 mm 1 mps 700 mmHg 85%
    12:00 -5°C° 0 mm 2 mps 701 mmHg 83%
    13:00 -4°C° 0 mm 2 mps 701 mmHg 81%
    14:00 -4°C° 0.1 mm 2 mps 701 mmHg 83%
    15:00 -4°C° 0.1 mm 2 mps 701 mmHg 85%
    16:00 -4°C° 0.1 mm 2 mps 701 mmHg 87%
    17:00 -5°C° 0.1 mm 2 mps 702 mmHg 90%
    18:00 -3°C° 0.1 mm 1 mps 702 mmHg 92%
    19:00 -4°C° 0.1 mm 1 mps 703 mmHg 94%
    20:00 -4°C° 0.1 mm 1 mps 703 mmHg 94%
    21:00 -4°C° 0.1 mm 1 mps 704 mmHg 94%
    22:00 -6°C° 0.1 mm 1 mps 704 mmHg 94%
    23:00 -6°C° 0 mm 1 mps 704 mmHg 94%

    Day after tomorrow, 25 January, Friday

    Time Temperature Precipitation Wind Pressure Humidity
    00:00 -7°C° 0 mm 1 mps 704 mmHg 94%
    01:00 -7°C° 0 mm 1 mps 704 mmHg 93%
    02:00 -8°C° 0 mm 1 mps 704 mmHg 93%
    03:00 -9°C° 0 mm 1 mps 704 mmHg 93%
    04:00 -9°C° 0 mm 1 mps 704 mmHg 93%
    05:00 -10°C° 0 mm 1 mps 704 mmHg 92%
    06:00 -10°C° 0 mm 1 mps 705 mmHg 92%
    07:00 -10°C° 0 mm 1 mps 705 mmHg 92%
    08:00 -9°C° 0 mm 1 mps 705 mmHg 91%
    09:00 -8°C° 0 mm 0 mps 706 mmHg 89%
    10:00 -7°C° 0 mm 0 mps 706 mmHg 88%
    11:00 -6°C° 0 mm 1 mps 706 mmHg 85%
    12:00 -4°C° 0 mm 1 mps 706 mmHg 82%
    13:00 -3°C° 0 mm 1 mps 706 mmHg 78%
    14:00 -3°C° 0 mm 1 mps 707 mmHg 79%
    15:00 -3°C° 0 mm 1 mps 707 mmHg 80%
    16:00 -3°C° 0 mm 1 mps 708 mmHg 80%
    17:00 -4°C° 0 mm 1 mps 708 mmHg 82%
    18:00 -6°C° 0 mm 0 mps 708 mmHg 84%
    19:00 -7°C° 0 mm 0 mps 709 mmHg 86%
    20:00 -7°C° 0 mm 0 mps 709 mmHg 87%
    21:00 -8°C° 0 mm 0 mps 709 mmHg 88%
    22:00 -9°C° 0 mm 0 mps 709 mmHg 89%
    23:00 -9°C° 0 mm 1 mps 709 mmHg 90%

    26 January, Saturday

    Time Temperature Precipitation Wind Pressure Humidity
    00:00 -9°C° 0 mm 1 mps 709 mmHg 91%
    01:00 -10°C° 0 mm 1 mps 709 mmHg 92%
    02:00 -10°C° 0 mm 1 mps 709 mmHg 92%
    03:00 -10°C° 0 mm 1 mps 709 mmHg 92%
    04:00 -12°C° 0 mm 2 mps 709 mmHg 92%
    05:00 -12°C° 0 mm 2 mps 708 mmHg 92%
    06:00 -12°C° 0 mm 2 mps 708 mmHg 92%
    07:00 -12°C° 0 mm 2 mps 708 mmHg 92%
    08:00 -12°C° 0 mm 3 mps 708 mmHg 90%
    09:00 -10°C° 0 mm 3 mps 707 mmHg 87%
    10:00 -8°C° 0 mm 3 mps 707 mmHg 84%
    11:00 -7°C° 0 mm 3 mps 706 mmHg 81%
    12:00 -7°C° 0 mm 4 mps 705 mmHg 77%
    13:00 -4°C° 0 mm 4 mps 704 mmHg 74%
    14:00 -4°C° 0 mm 4 mps 703 mmHg 73%
    15:00 -4°C° 0 mm 4 mps 702 mmHg 73%
    16:00 -4°C° 0 mm 3 mps 702 mmHg 72%
    17:00 -4°C° 0 mm 4 mps 701 mmHg 73%
    18:00 -5°C° 0 mm 4 mps 701 mmHg 74%
    19:00 -5°C° 0 mm 4 mps 700 mmHg 76%
    20:00 -5°C° 0 mm 4 mps 700 mmHg 75%
    21:00 -5°C° 0 mm 4 mps 699 mmHg 75%
    22:00 -5°C° 0 mm 3 mps 698 mmHg 75%
    23:00 -5°C° 0.2 mm 4 mps 697 mmHg 80%

    27 January, Sunday

    Time Temperature Precipitation Wind Pressure Humidity
    00:00 -4°C° 0.2 mm 4 mps 697 mmHg 85%
    01:00 -4°C° 0.2 mm 4 mps 696 mmHg 89%
    02:00 -3°C° 0.3 mm 4 mps 696 mmHg 91%
    03:00 -4°C° 0.3 mm 5 mps 696 mmHg 92%
    04:00 -2°C° 0.3 mm 5 mps 696 mmHg 94%
    05:00 -2°C° 0.3 mm 5 mps 696 mmHg 93%
    06:00 -2°C° 0.3 mm 5 mps 697 mmHg 92%
    07:00 -2°C° 0.3 mm 5 mps 697 mmHg 91%
    08:00 -4°C° 0.4 mm 5 mps 697 mmHg 92%
    09:00 -4°C° 0.4 mm 5 mps 698 mmHg 92%
    10:00 -4°C° 0.4 mm 5 mps 698 mmHg 92%
    11:00 -4°C° 0.5 mm 5 mps 698 mmHg 91%
    12:00 -3°C° 0.5 mm 4 mps 698 mmHg 91%
    13:00 -3°C° 0.5 mm 4 mps 698 mmHg 90%
    14:00 -2°C° 0.3 mm 3 mps 698 mmHg 90%
    15:00 -2°C° 0.3 mm 3 mps 698 mmHg 90%
    16:00 -2°C° 0.3 mm 2 mps 698 mmHg 90%
    17:00 -3°C° 0.1 mm 2 mps 698 mmHg 91%
    18:00 -2°C° 0.1 mm 1 mps 698 mmHg 92%
    19:00 -3°C° 0.1 mm 1 mps 699 mmHg 93%
    20:00 -3°C° 0 mm 1 mps 699 mmHg 94%
    21:00 -5°C° 0 mm 0 mps 699 mmHg 94%
    22:00 -5°C° 0 mm 0 mps 699 mmHg 94%
    23:00 -6°C° 0 mm 0 mps 699 mmHg 94%

    28 January, Monday

    Time Temperature Precipitation Wind Pressure Humidity
    00:00 -6°C° 0 mm 0 mps 699 mmHg 94%
    01:00 -6°C° 0 mm 0 mps 699 mmHg 94%
    02:00 -7°C° 0 mm 0 mps 699 mmHg 94%
    03:00 -7°C° 0 mm 0 mps 698 mmHg 94%
    04:00 -7°C° 0 mm 0 mps 698 mmHg 94%
    05:00 -6°C° 0.1 mm 1 mps 698 mmHg 95%
    06:00 -6°C° 0.1 mm 1 mps 699 mmHg 95%
    07:00 -4°C° 0.1 mm 1 mps 699 mmHg 95%
    08:00 -5°C° 0.1 mm 2 mps 699 mmHg 95%
    09:00 -6°C° 0.1 mm 3 mps 699 mmHg 94%
    10:00 -5°C° 0.1 mm 3 mps 699 mmHg 94%
    11:00 -4°C° 0.2 mm 4 mps 699 mmHg 93%
    12:00 -3°C° 0.2 mm 4 mps 699 mmHg 93%
    13:00 -4°C° 0.2 mm 5 mps 699 mmHg 92%
    14:00 -3°C° 0.2 mm 4 mps 699 mmHg 92%
    15:00 -3°C° 0.2 mm 4 mps 700 mmHg 92%
    16:00 -3°C° 0.2 mm 4 mps 700 mmHg 92%
    17:00 -3°C° 0.1 mm 4 mps 700 mmHg 93%
    18:00 -2°C° 0.1 mm 3 mps 701 mmHg 94%
    19:00 -2°C° 0.1 mm 3 mps 701 mmHg 95%
    20:00 -4°C° 0.1 mm 3 mps 702 mmHg 95%
    21:00 -4°C° 0.1 mm 3 mps 702 mmHg 96%
    22:00 -4°C° 0.1 mm 2 mps 703 mmHg 96%
    23:00 -4°C° 0.1 mm 2 mps 703 mmHg 97%
    Show more